Regional Weather Roundup
Issued by NWS Grand Forks, ND

Home | Current Version | Previous Version | Graphics & Text | Print | Product List | Glossary On
Versions: 1 2 3 4 5 6 7 8 9 10 11 12 13 14 15 16 17 18 19 20 21 22 23 24 25 26 27 28 29 30 31 32 33 34 35 36 37 38 39 40 41 42 43 44 45 46 47 48 49 50
000
ASUS43 KFGF 021710
RWRFGF
PRAIRIE TO PINES  WEATHER ROUNDUP
NATIONAL WEATHER SERVICE EASTERN NORTH DAKOTA/GRAND FORKS ND
1200 PM CDT TUE JUN 02 2015

 **SATELLITE DATA USED TO AUGMENT SKY COVER AT AUTOMATED STATIONS**
 *****  WEATHER ACROSS EASTERN NORTH DAKOTA  *****

CITY           SKY/WX    TMP DP  RH WIND       PRES   REMARKS
GRAND FORKS    LGT RAIN  65  57  75 S6        29.81F
GRAND FRKS AFB CLOUDY    65  57  75 S5        29.81S
GRAND FRKS NWS   N/A     64 N/A N/A S9          N/A
DEVILS LAKE    CLOUDY    64  57  77 E6        29.81R
FARGO          LGT RAIN  65  56  72 SE26G46   29.73F
WAHPETON ARPT  CLOUDY    64  54  68 SE10G18   29.84F
$$

 ***** WEATHER ACROSS CENTRAL AND WESTERN NORTH DAKOTA  *****

CITY           SKY/WX    TMP DP  RH WIND       PRES   REMARKS
BISMARCK       CLOUDY    72  63  73 W3        29.76F
MINOT          CLOUDY    65  60  84 NE10      29.80S
JAMESTOWN      CLOUDY    65  59  81 S10       29.79R
MINOT AFB      CLOUDY    63  63 100 E9        29.81R
GARRISON         N/A     67  62  84 SE9       29.79F
WILLISTON      HVY RAIN  58  56  93 NE9       29.82F FOG
DICKINSON      PTSUNNY   69  57  65 CALM      29.78F
HETTINGER      SUNNY     74  59  59 SW8       29.79F
$$

 *****  OTHER AIRPORT OBSERVATIONS IN OUR AREA  *****

CITY           SKY/WX    TMP DP  RH WIND       PRES   REMARKS
WALHALLA       RAIN      59  59 100 MISG      29.85S
GRAFTON AIRPOR PTSUNNY   63  59  88 SW6       29.84R
VALLEY CITY AR LGT RAIN  64  64 100 S9        29.81R
CANDO          CLOUDY    61  59  94 E7        29.84R
CAVALIER APRT  CLOUDY    63  59  88 N5        29.84S
GWINNER        NOT AVBL
SHEYENNE NWR     N/A     68  58  71 S21       29.95S
ROLLA          CLOUDY    55  55 100 NE16G22   29.85R
 ***** THE ABOVE OBSERVATIONS ARE NON NWS ARE NOT QUALITY
       CONTROLLED AND MAY MIS-REPORT RAIN FOR SNOW...
$$

  *****  WEATHER ACROSS NORTHERN MINNESOTA  *****

CITY           SKY/WX    TMP DP  RH WIND       PRES   REMARKS
FLAG ISLAND    PTSUNNY   57  52  82 SE13      29.85F
WARROAD        PTSUNNY   66  59  77 S7        29.85F
ROSEAU         PTSUNNY   70  57  64 S13       29.85S
HALLOCK        CLOUDY    64  59  82 S10       29.83F
THF RVR FALLS  CLOUDY    63  55  77 S9        29.85F
BAUDETTE       CLOUDY    63  52  67 S12       29.88F
WASKISH        CLOUDY    59  55  88 SE7       29.89S
CROOKSTON      CLOUDY    66  59  77 S14G20    29.82F
STEPHEN NDAWN    N/A     64  57  77 S10         N/A
GREENBUSH NDAW   N/A     66  61  82 S10         N/A
$$
  *****  WEATHER ACROSS CENTRAL AND WEST MINNESOTA  *****

CITY           SKY/WX    TMP DP  RH WIND       PRES   REMARKS
FOSSTON        CLOUDY    64  57  77 S17G23    29.83F
BEMIDJI        CLOUDY    66  57  71 S10       29.88F
PARK RAPIDS    CLOUDY    72  53  51 S15       29.92F
ELBOW LAKE     FAIR      66  55  65 SE23G31   29.87F
WADENA         CLOUDY    70  55  60 S17       29.93F
DETROIT LAKES  CLOUDY    68  54  60 S21G28    29.88F
MOORHEAD       LGT RAIN  64  57  77 SE20G29   29.78F
FERGUS FALLS   CLOUDY    68  55  64 S23       29.86F
MORRIS MN      CLOUDY    70  55  60 SE21      29.90F
STAPLES        CLOUDY    70  52  52 S14G20    29.95F
$$
  *****  WEATHER ELSEWHERE ACROSS MINNESOTA  *****

CITY           SKY/WX    TMP DP  RH WIND       PRES   REMARKS
DULUTH         MOSUNNY   68  48  48 S13       30.02F
INTRNTL FALLS  CLOUDY    56  52  86 S7        29.92F
ELY            CLOUDY    64  43  45 SW9       30.00S
CLOQUET        MOSUNNY   70  46  43 S13       30.01S
WHEATON        DRIZZLE   63  55  77 SE14G30   29.86F
BRAINERD       PTSUNNY   71  53  52 S18G25    29.99S
HIBBING        PTSUNNY   69  47  45 S10G17    29.98F
ALEXANDRIA     CLOUDY    70  54  56 S20G29    29.95F
SAINT CLOUD    PTSUNNY   71  54  54 S17G23    30.01R
MINNEAPOLIS    PTSUNNY   71  52  50 S17G23    30.03F
$$

  *****  WEATHER ACROSS SOUTH DAKOTA  *****

CITY           SKY/WX    TMP DP  RH WIND       PRES   REMARKS
SIOUX FALLS    CLOUDY    70  58  65 S18G26    29.93S
BROOKINGS      PTSUNNY   72  57  60 S24G32    29.90F
WATERTOWN      CLOUDY    70  58  65 S21G28    29.86F
HURON          MOSUNNY   74  60  61 S17G29    29.82R
SISSETON         N/A     67  59  75 S13       29.83S
ABERDEEN       MOSUNNY   71  61  70 S22G31    29.79F
MITCHELL       MOSUNNY   75  60  59 S20G32    29.85F
PIERRE         SUNNY     81  62  52 S16G24    29.73S
MOBRIDGE       MOSUNNY   81  61  50 S14       29.71F
RAPID CITY     SUNNY     76  58  53 N12       29.83R
$$

  *****  SOME WEATHER IN NEARBY STATES *****

CITY           SKY/WX    TMP DP  RH WIND       PRES   REMARKS
GLASGOW MT     LGT RAIN  56  50  80 N7        29.88S
GREAT FALLS MT LGT RAIN  59  51  75 S10       29.89S
CHEYENNE WY    SUNNY     77  43  29 VRB3      30.00S
SCOTTSBLUFF NE SUNNY     74  59  59 S6        29.89F
OMAHA NE       PTSUNNY   69  56  62 SE14G23   29.99F
DES MOINES IA  CLOUDY    66  54  65 SE18      30.07F
DAVENPORT IA   MOSUNNY   68  50  52 S6G16     30.14S
CHICAGO IL     MOSUNNY   68  45  43 SE10      30.16F
EAU CLAIRE WI  SUNNY     70  50  49 S12       30.08F
LA CROSSE WI   SUNNY     69  51  52 S6        30.10F
$$

  *****  SOME NATIONAL WEATHER *****

CITY           SKY/WX    TMP DP  RH WIND       PRES   REMARKS
LA GUARDIA NY  LGT RAIN  53  50  89 N8        30.14F
RALEIGH NC     CLOUDY    75  68  78 CALM      30.04F
ATLANTA GA     PTSUNNY   79  61  53 W7        30.03F
NEW ORLEANS LA MOSUNNY   84  70  62 N10       30.00F
OKLAHOMA CITY  PTSUNNY   82  65  56 S13G22    30.00S
ALBUQUERQUE NM MOSUNNY   78  36  21 CALM      30.16F
SALT LAKE CITY MOSUNNY   73  50  44 NW9       29.96S
LOS ANGELES CA PTSUNNY   65  57  75 SE5       30.00F
BOISE ID       MOSUNNY   67  44  43 W7        30.01F
SEATTLE WA     CLOUDY    57  52  83 SW9       30.02S
$$

*** WEATHER ACROSS MANITOBA...SASKATCHEWAN AND ONTARIO ***
                ***ONTARIO***

CITY           SKY/WX    TMP DP  RH WIND       PRES   REMARKS
GERALDTON      MOSUNNY   68  37  32 SW17G26   30.04F
THUNDER BAY    PTSUNNY   63  45  51 NE12      30.05F
SIOUX LOOKOUT  CLOUDY    54  52  94 S5        29.92F
TORONTO        MOSUNNY   59  48  67 S10       30.21F
BIG TROUT LK   MOSUNNY   59  50  72 W14G20    29.77R
PICKLE LAKE    PTSUNNY   68  45  42 S16G23    29.86F
DRYDEN         PTSUNNY   61  50  67 S15G22    29.90F
KENORA         PTSUNNY   66  52  59 SW14      29.87F
$$
                *** MANITOBA***

CITY           SKY/WX    TMP DP  RH WIND       PRES   REMARKS
BRANDON        CLOUDY    64  50  59 E22G31    29.87F
DAUPHIN        SUNNY     63  45  51 NE14G20   29.94S
ISLAND LAKE    MOSUNNY   57  41  54 W12G17    29.83S
PILOT MOUND      N/A     57  55  94 NE15G21     N/A
THE PAS        MOSUNNY   55  32  41 NW13G20   29.96S
THOMPSON       PTSUNNY   52  32  46 W20G26    29.82F
WINNIPEG       CLOUDY    66  55  68 NE14      29.85R
LYNN LAKE      MOSUNNY   46  28  49 NW21G31   29.89S
CHURCHILL      LGT RAIN  43  34  70 W22G29    29.55R
GILLAM         PTSUNNY   48  36  61 W18G29    29.74R
$$
                ***SASKATCHEWAN***

CITY           SKY/WX    TMP DP  RH WIND       PRES   REMARKS
ESTEVAN        LGT RAIN  59  50  72 NE16      29.87S
KINDERSLEY     CLOUDY    59  39  47 E14G21    30.01S
LLOYDMINSTER   PTSUNNY   54  36  50 SE13      30.05F
PRINCE ALBERT  CLOUDY    54  36  50 NE6       30.04F
REGINA         CLOUDY    63  46  55 NE13G21   29.94F
YORKTON        SUNNY     61  37  41 N13G18    29.95F
N. BATTLEFORD  SUNNY     55  39  54 E8        30.07F
LA RONGE       PTSUNNY   55  32  41 NW14G20   30.03S
SASKATOON      PTSUNNY   59  34  38 NE14G20   30.03F
SWIFT CURRENT  SUNNY     55  46  71 E14G20    29.96F
$$
NOTE: THESE ARE AUTOMATED STATIONS WITH LIMITED QUALITY CONTROL
      "FAIR" INDICATES FEW OR NO CLOUDS BELOW 12,000 FEET WITH NO
      SIGNIFICANT WEATHER AND/OR OBSTRUCTIONS TO VISIBILITY.
      SKY/WX - SKY CONDITION AND SIGNIFICANT WEATHER.
      TMP - AIR TEMPERATURE.    DP   - DEWPOINT TEMPERATURE.
      RH  - RELATIVE HUMIDITY.  PRES - PRESSURE.
      HX  - HEAT INDEX.         WCI  - WIND CHILL INDEX.
$


USA.gov is the U.S. government's official web portal to all federal, state and local government web resources and services.